Flag for U.S.A. Weather past 2 weeks in Wilmington, Delaware, U.S.A.

Now
52 °F

Passing clouds.


Feels Like: 48 °F
Forecast: 44 / 62 °F
Wind: 13 mph from South

Location: New Castle County Airport

Current Time: Apr 26, 2015 at 9:52:12 PM

Latest Report: Apr 26, 2015 at 8:51 PM


Visibility: 10 mi

Pressure: 29.70 "Hg

Humidity: 61%

Dew point: 39 °F

Location of WilmingtonLocation

Historic Weather in Wilmington — Graph

°F

Wilmington temperature yesterday

Maximum temperature yesterday: 55 °F (at 3:51 PM)
Minimum temperature yesterday: 32 °F (at 5:51 AM)
Average temperature yesterday: 45 °F

Past Weeks' High & Low Weather Summary

 TemperatureHumidityPressure
High79 °F (Apr 18, 3:51 PM)100% (Apr 17, 7:51 AM)30.47 "Hg (Apr 17, 7:51 AM)
Low32 °F (Apr 25, 5:51 AM)14% (Apr 15, 1:51 PM)29.55 "Hg (Apr 20, 9:51 PM)
Average55 °F56%30.00 "Hg
* Reported Apr 11 7:51 PM — Apr 26 7:51 PM, Wilmington, Weather by CustomWeather, © 2015

Note: Actual official high and low records may vary slightly from our data, if they occured in-between our weather recording intervals... More about our weather records

Advertising

Wilmington weather history for previous 24 hours

 ConditionsComfort  
Time TempWeatherWind HumidityBarometerVisibility
7:51 PM
Sun, Apr 26
53 °FOvercast.10 mph61%29.69 "Hg10 mi
6:51 PM56 °FPassing clouds.9 mph55%29.68 "Hg10 mi
5:51 PM62 °FOvercast.3 mph29%29.67 "Hg10 mi
4:51 PM59 °FPartly sunny.7 mph32%29.67 "Hg10 mi
3:51 PM61 °FPartly sunny.5 mph30%29.67 "Hg10 mi
2:51 PM61 °FPartly sunny.10 mph31%29.68 "Hg10 mi
1:51 PM62 °FPartly sunny.N/A32%29.69 "Hg10 mi
12:51 PM59 °FSunny.8 mph32%29.70 "Hg10 mi
11:51 AM59 °FSunny.9 mph36%29.71 "Hg10 mi
10:51 AM56 °FSunny.13 mph39%29.71 "Hg10 mi
9:51 AM54 °FSunny.10 mph41%29.70 "Hg10 mi
8:51 AM51 °FSunny.15 mph46%29.70 "Hg10 mi
7:51 AM49 °FSunny.8 mph50%29.69 "Hg10 mi
6:51 AM45 °FClear.7 mph58%29.68 "Hg10 mi
5:51 AM44 °FClear.8 mph63%29.66 "Hg10 mi
4:51 AM43 °FClear.6 mph76%29.67 "Hg10 mi
3:51 AM43 °FClear.6 mph76%29.67 "Hg10 mi
2:51 AM44 °FClear.5 mph73%29.67 "Hg10 mi
1:51 AM45 °FPassing clouds.5 mph76%29.69 "Hg10 mi
12:51 AM46 °FClear.5 mph71%29.69 "Hg10 mi
11:51 PM
Sat, Apr 25
47 °FClear.6 mph69%29.72 "Hg10 mi
10:51 PM48 °FOvercast.6 mph61%29.73 "Hg10 mi
9:51 PM48 °FPassing clouds.6 mph59%29.73 "Hg10 mi
Weather by CustomWeather, © 2015

See weather overviewHow to use our weather pages